Weather History for KRNT - March, 2013

Change the Weather History Date:

Sunday, March 10, 2013

  Actual Average Record
Temperature  
Mean Temperature 42 °F -  
Max Temperature 46 °F 50 °F 63 °F (2005)
Min Temperature 37 °F 38 °F 27 °F (2009)
Degree Days  
Heating Degree Days 24    
Moisture  
Dew Point 40 °F    
Average Humidity 87    
Maximum Humidity 96    
Minimum Humidity 79    
Precipitation  
Precipitation 0.02 in - - ()
Sea Level Pressure  
Sea Level Pressure 30.47 in    
Wind  
Wind Speed 2 mph (SSE)    
Max Wind Speed 5 mph    
Max Gust Speed -    
Visibility 9 miles    
Events Rain    
Averages and records for this station are not official NWS values.
T = Trace of Precipitation, MM = Missing Value Source: NWS Daily Summary

Daily Weather History Graph

Daily Weather History Graph

Search for Another Location

Airport or City:

Trip Planner

Search our weather history database for the weather conditions in past years. The results will help you decide how hot, cold, wet, or windy it might be!

Date:

Astronomy

Mar. 10, 2013 Rise Set
Actual Time 7:31 AM PDT 7:07 PM PDT
Civil Twilight 7:00 AM PDT 7:38 PM PDT
Nautical Twilight 6:24 AM PDT 8:14 PM PDT
Astronomical Twilight 5:48 AM PDT 8:50 PM PDT
Moon 6:36 AM PDT (3/10) 6:21 PM PDT (3/10)
Length of Visible Light 12h 37m
Length of Day
11h 36m
Waning Crescent, 1% of the Moon is Illuminated
Mar 10
Waning Crescent
Mar 11
New
Mar 19
First Quarter
Mar 27
Full
Apr 2
Last Quarter

Hourly Weather History & Observations

Time (PDT) Temp. Windchill Dew Point Humidity Pressure Visibility Wind Dir Wind Speed Gust Speed Precip Events Conditions
12:53 AM 37.9 °F - 33.1 °F 83% 30.52 in 10.0 mi Calm Calm - N/A   Clear
1:53 AM 37.9 °F 35.5 °F 34.0 °F 86% 30.52 in 10.0 mi ESE 3.5 mph - N/A   Clear
3:53 AM 37.0 °F - 34.0 °F 89% 30.52 in 10.0 mi Calm Calm - N/A   Partly Cloudy
5:53 AM 39.0 °F 36.8 °F 35.1 °F 86% 30.52 in 10.0 mi SE 3.5 mph - N/A   Overcast
6:53 AM 39.0 °F 35.7 °F 35.1 °F 86% 30.51 in 10.0 mi SSE 4.6 mph - N/A   Overcast
7:53 AM 39.0 °F - 35.1 °F 86% 30.50 in 9.0 mi Calm Calm - N/A   Overcast
8:53 AM 39.9 °F 36.7 °F 35.1 °F 83% 30.49 in 10.0 mi South 4.6 mph - N/A   Overcast
9:53 AM 42.1 °F 39.2 °F 36.0 °F 79% 30.49 in 10.0 mi SSE 4.6 mph - N/A   Overcast
10:53 AM 43.0 °F 41.3 °F 37.0 °F 80% 30.49 in 10.0 mi SE 3.5 mph - N/A   Overcast
11:53 AM 44.1 °F 42.5 °F 39.9 °F 85% 30.49 in 7.0 mi South 3.5 mph - 0.01 in Rain Light Rain
12:53 PM 46.0 °F 44.8 °F 41.0 °F 83% 30.48 in 10.0 mi SE 3.5 mph - 0.00 in Rain Light Rain
1:30 PM 46.4 °F - 41.0 °F 81% 30.46 in 10.0 mi Calm Calm - 0.00 in   Overcast
1:53 PM 46.0 °F - 41.0 °F 83% 30.48 in 10.0 mi Calm Calm - 0.00 in   Overcast
2:53 PM 46.0 °F - 41.0 °F 83% 30.46 in 10.0 mi Calm Calm - N/A   Overcast
3:53 PM 46.9 °F - 41.0 °F 80% 30.47 in 10.0 mi Calm Calm - N/A   Overcast
4:17 PM 46.4 °F 45.2 °F 41.0 °F 81% 30.45 in 9.0 mi SSE 3.5 mph - 0.00 in Rain Light Rain
4:25 PM 46.4 °F 44.3 °F 41.0 °F 81% 30.45 in 10.0 mi South 4.6 mph - 0.01 in Rain Light Rain
4:53 PM 46.9 °F - 43.0 °F 86% 30.45 in 10.0 mi SSE 3.5 mph - 0.01 in   Overcast
5:53 PM 46.0 °F - 42.1 °F 86% 30.46 in 10.0 mi Calm Calm - N/A   Overcast
6:53 PM 46.0 °F - 41.0 °F 83% 30.46 in 10.0 mi Calm Calm - N/A   Overcast
7:40 PM 44.6 °F - 42.8 °F 93% 30.45 in 10.0 mi Calm Calm - N/A   Overcast
7:50 PM 44.6 °F - 42.8 °F 93% 30.45 in 10.0 mi Calm Calm - N/A   Overcast
7:53 PM 45.0 °F - 42.1 °F 90% 30.46 in 10.0 mi Calm Calm - N/A   Overcast
8:53 PM 45.0 °F - 42.1 °F 90% 30.46 in 10.0 mi Calm Calm - N/A   Overcast
9:02 PM 44.6 °F - 42.8 °F 93% 30.44 in 10.0 mi Calm Calm - N/A   Overcast
9:29 PM 44.6 °F - 42.8 °F 93% 30.44 in 9.0 mi Calm Calm - N/A   Overcast
9:53 PM 44.1 °F - 43.0 °F 96% 30.45 in 8.0 mi Calm Calm - N/A   Overcast
10:53 PM 44.1 °F - 42.1 °F 93% 30.45 in 8.0 mi Calm Calm - N/A   Overcast
11:45 PM 44.6 °F - 42.8 °F 93% 30.44 in 7.0 mi Calm Calm - N/A   Overcast
11:53 PM 44.1 °F - 42.1 °F 93% 30.46 in 7.0 mi Calm Calm - N/A   Overcast
12:53 AM 44.1 °F - 42.1 °F 93% 30.46 in 7.0 mi Calm Calm - N/A   Overcast